Girona Airport

Jump to: basic info | weather | frequencies | runways | comments

Related pages: nearby airports | nearby navaids | notams | map

Basic information (top)

Codes: GRO LEGE
Location: lon 41.901001, lat 2.760550, elev 468 ft / 143 m msl
Status: medium_airport
Scheduled airline service: yes
Links: Wikipedia Mobile

Weather (top)

Current conditions (rec'd 2014/08/20 18:00Z):

LEGE 201800Z 04008KT 010V080 9999 FEW020 BKN038 21/15 Q1016

Airport forecast (rec'd 2014/08/20 18:27Z):

TAF LEGE 201700Z 2018/2118 18010KT 9999 SCT020 BKN030 TX26/2113Z TN16/2105Z 
      BECMG 2018/2020 VRB03KT 
      BECMG 2109/2112 18010KT 
      TEMPO 2018/2118 FEW020CB BKN025

Frequencies (top)

Verify before use: may be inaccurate or out of date.

APP: 120.9 MHz (APP)
GND: 121.7 MHz (GND)
TWR: 118.5 MHz (TWR)

Runways (top)

02/20: 7,874 x 148 ft (2,400 x 45 m) — paved — lighted

Latest comments (top)

No comments yet for Girona Airport

More... (top)

See also NOTAMs and nearby airports and navaids, or visit the Girona Airport page at the main OurAirports website..